Location: The Saddle
(36.8333°N, 80.3417°W)
Time: 12:43:41
(UTC-04:00)

Courier 1B - Pass Details

Date: 20 September 2024
Orbit: 962 x 1208 km, 28.3° (Epoch: 06 October)

Event Time Altitude Azimuth Distance (km) Brightness Sun altitude
Rises 11:51:29 0° 215° (SW) 3,657 10.7 49.1°
Reaches altitude 10° 11:54:53 10° 198° (SSW) 2,739 10.4 49.5°
Maximum altitude 11:59:22 19° 155° (SSE) 2,192 10.6 49.9°
Drops below altitude 10° 12:04:00 10° 113° (ESE) 2,848 10.6 50.4°
Sets 12:07:38 0° 96° (E) 3,853 10.9 50.7°
